Content
SEND FEEDBACK

Daily
Averages
Monthly
Summary
United States of America

CAMDEN, NORTH CAROLINA


Home > North America > United States > North Carolina
Elevation: 10 feet     Latitude: 36 15N     Longitude: 076 10W

WEATHER
 
SELECT A DAY
Number of Records: 196,031;   Date Range: 1/2/95 - 11/22/14
 
SHARE

PRINT THIS DATA

[ ← Previous Day ]
WEATHER ALMANAC - FEBRUARY 13, 2013
[ Next Day → ]
[ °C ]   °F
Weather ElementAverageHighLow
Temperature52.1 °F54 °F (8:54 pm)50 °F (4:41 pm)
Dewpoint46.7 °F48.9 °F (12:54 pm)42.1 °F (1:54 am)
Humidity82 %89 % (4:54 pm)69 % (4:54 am)
Barometer29.71 in29.94 in (1:54 am)29.60 in (4:54 pm)
Wind Speed7.5 mph17.3 mph (9:54 pm)
Wind Gust25.3 mph (9:54 pm)
Weather ElementAverage
Visibility6.1 mi
Wind DirectionSE (133.8 °)

Weather ElementTotal
Precipitation0.14 in
Heating Degree Days13 (Base 65)
Growing Degree Days2 (Base 50)
Averaged from 48 records on February 13, 2013
WEATHER CONDITIONS BREAKOUT
WIND DIRECTION BREAKOUT
WEATHER BY HOUR - FEBRUARY 13, 2013
[ °C ]   °F
Local TimeTemperatureDewpointHumidityBarometerVisibilityWind DirectionWind SpeedGust SpeedPrecipitationEventsConditions
1:54 AM51.1 °F42.1 °F71 %29.94 in10.0 miCalmOvercast
2:54 AM51.1 °F44.1 °F77 %29.90 in10.0 miEast (80°)5.8 mph0.00 inMostly Cloudy
3:54 AM51.1 °F42.1 °F71 %29.87 in10.0 miNE (50°)6.9 mphScattered Clouds
4:54 AM52.0 °F42.1 °F69 %29.88 in10.0 miCalmOvercast
5:54 AM52.0 °F44.1 °F74 %29.85 in9.0 miEast (80°)4.6 mph0.01 inRainLight Rain
6:54 AM51.1 °F46.0 °F83 %29.84 in10.0 miCalm0.07 inRainLight Rain
7:54 AM51.1 °F46.0 °F83 %29.85 in10.0 miCalm0.01 inRainLight Rain
8:54 AM51.1 °F46.9 °F86 %29.86 in3.0 miCalm0.02 inRainLight Rain
9:54 AM52.0 °F46.9 °F83 %29.83 in4.0 miCalm0.02 inRainLight Rain
10:54 AM52.0 °F46.9 °F83 %29.78 in10.0 miNNW (340°)4.6 mph0.00 inOvercast
11:20 AM53.6 °F48.2 °F82 %29.77 in5.0 miNorth (360°)6.9 mph0.00 inRainLight Rain
11:32 AM53.6 °F48.2 °F82 %29.75 in2.5 miNE (40°)4.6 mph0.00 inRainLight Rain
11:54 AM52.0 °F48.0 °F86 %29.73 in2.5 miNE (40°)6.9 mph0.00 inOvercast
12:09 PM53.6 °F48.2 °F82 %29.73 in3.0 miNorth (10°)6.9 mphOvercast
12:41 PM53.6 °F48.2 °F82 %29.72 in1.8 miNNE (20°)5.8 mph0.00 inRainLight Rain
12:54 PM53.1 °F48.9 °F86 %29.70 in1.5 miNE (40°)4.6 mph0.01 inRainLight Rain
1:05 PM53.6 °F48.2 °F82 %29.70 in2.5 miNE (40°)8.1 mph0.00 inOvercast
1:18 PM51.8 °F48.2 °F88 %29.70 in4.0 miNE (40°)6.9 mph0.00 inOvercast
1:26 PM53.6 °F48.2 °F82 %29.70 in4.0 miNE (40°)6.9 mph0.00 inOvercast
1:51 PM53.6 °F48.2 °F82 %29.67 in2.5 miENE (70°)10.4 mph0.00 inHaze
1:54 PM53.1 °F48.0 °F83 %29.67 in2.5 miEast (80°)9.2 mph0.00 inHaze
2:41 PM51.8 °F46.4 °F82 %29.64 in3.0 miEast (90°)9.2 mphOvercast
2:54 PM51.1 °F46.9 °F86 %29.61 in4.0 miEast (90°)10.4 mphOvercast
3:54 PM51.1 °F46.9 °F86 %29.62 in3.0 miENE (70°)6.9 mphOvercast
4:01 PM51.8 °F46.4 °F82 %29.61 in2.0 miESE (110°)4.6 mphOvercast
4:11 PM51.8 °F46.4 °F82 %29.61 in1.8 miEast (100°)6.9 mphOvercast
4:41 PM50.0 °F46.4 °F87 %29.62 in1.5 miCalmOvercast
4:54 PM50.0 °F46.9 °F89 %29.60 in1.8 miEast (100°)5.8 mphOvercast
5:03 PM50.0 °F46.4 °F87 %29.60 in2.5 miCalmOvercast
5:10 PM50.0 °F46.4 °F87 %29.62 in4.0 miCalmOvercast
5:54 PM50.0 °F46.9 °F89 %29.62 in3.0 miSW (230°)3.5 mphOvercast
6:22 PM51.8 °F46.4 °F82 %29.61 in2.5 miSSW (210°)5.8 mphOvercast
6:40 PM51.8 °F46.4 °F82 %29.61 in3.0 miSSW (210°)6.9 mphOvercast
6:54 PM51.1 °F48.0 °F89 %29.62 in4.0 miSW (230°)8.1 mphOvercast
7:52 PM53.6 °F48.2 °F82 %29.62 in10.0 miWSW (240°)16.1 mphOvercast
7:54 PM53.1 °F48.9 °F86 %29.62 in10.0 miWSW (240°)13.8 mphOvercast
8:22 PM53.6 °F48.2 °F82 %29.63 in10.0 miWSW (240°)15.0 mph24.2 mphOvercast
8:43 PM53.6 °F48.2 °F82 %29.64 in10.0 miWest (260°)11.5 mph23.0 mphOvercast
8:52 PM53.6 °F48.2 °F82 %29.65 in10.0 miWSW (250°)13.8 mph20.7 mphOvercast
8:54 PM54.0 °F48.0 °F80 %29.65 in10.0 miWest (260°)15.0 mph21.9 mphOvercast
9:17 PM53.6 °F46.4 °F77 %29.67 in10.0 miWest (260°)12.7 mph23.0 mphOvercast
9:54 PM53.1 °F46.0 °F77 %29.69 in10.0 miWest (270°)17.3 mph25.3 mphOvercast
10:23 PM51.8 °F46.4 °F82 %29.70 in10.0 miWest (270°)12.7 mphMostly Cloudy
10:45 PM51.8 °F46.4 °F82 %29.72 in10.0 miWest (270°)11.5 mphMostly Cloudy
10:54 PM52.0 °F46.0 °F80 %29.72 in10.0 miWest (270°)11.5 mphOvercast
11:09 PM51.8 °F46.4 °F82 %29.72 in10.0 miWest (280°)15.0 mphOvercast
11:40 PM51.8 °F44.6 °F76 %29.73 in10.0 miWest (270°)13.8 mph20.7 mphOvercast
11:54 PM51.1 °F45.0 °F80 %29.73 in10.0 miWest (270°)11.5 mphOvercast
Hourly data recorded from KECG, located miles away from Camden, North Carolina







STORIES FROM OUR PARTNERS